Regional Weather Roundup
Issued by NWS Northern Indiana

Home | Current Version | Previous Version | Graphics & Text | Print | Product List | Glossary On
Versions: 1 2 3 4 5 6 7 8 9 10 11 12 13 14 15 16 17 18 19 20 21 22 23 24 25 26 27 28 29 30 31 32 33 34 35 36 37 38 39 40 41 42 43 44 45 46 47 48 49 50
000
ASUS43 KIWX 291300
RWRIWX

KIWX WEATHER ROUNDUP
NATIONAL WEATHER SERVICE NORTHERN INDIANA
900 AM EDT TUE JUL 29 2014

NOTE: "FAIR" INDICATES FEW OR NO CLOUDS BELOW 12,000 FEET WITH NO
SIGNIFICANT WEATHER AND/OR OBSTRUCTIONS TO VISIBILITY.

* THESE STATIONS ARE NOT UNDER NWS QUALITY CONTROL. THEY ALSO MAY NOT
  REPORT WEATHER SUCH AS PRECIPITATION OR FOG.

INZ001>027-291400-
NORTHERN INDIANA

CITY           SKY/WX    TMP DP  RH WIND       PRES   REMARKS
GARY*          PTSUNNY   63  55  77 SW6       30.06S
VALPARAISO     PTSUNNY   59  53  80 SW6       30.06S
KNOX*          SUNNY     55  51  87 SW3       30.05S
SOUTH BEND     PTSUNNY   56  51  84 SW3       30.05S
ELKHART*       CLOUDY    55  54  94 CALM      30.05
GOSHEN         CLOUDY    55  51  86 SW5       30.05S
MONTICELLO*    SUNNY     56  53  91 CALM      30.07R
WARSAW*        MOSUNNY   54  52  94 W5        30.06S
ANGOLA*        SUNNY     57  52  82 W3        30.05R
FORT WAYNE     MOSUNNY   55  51  86 SW6       30.06S
PERU/GRISSOM   SUNNY     58  58 100 W5        30.07R

$$
INZ028>050-291400-
CENTRAL INDIANA

CITY           SKY/WX    TMP DP  RH WIND       PRES   REMARKS
LAFAYETTE      SUNNY     56  53  90 SW3       30.07F
KOKOMO*        SUNNY     57  54  88 W3        30.07F
MUNCIE*        SUNNY     54  50  86 CALM      30.07S
INDIANAPOLIS   MOSUNNY   59  51  75 CALM      30.08R

$$
MIZ043>046-050>051-056>058-064>065-071>073-077>080-291400-
SOUTHWEST LOWER MICHIGAN

CITY           SKY/WX    TMP DP  RH WIND       PRES   REMARKS
BATTLE CREEK   CLOUDY    56  51  84 SW5       30.04R
BENTON HARBOR  PTSUNNY   59  55  87 S5        30.02F
COLDWATER*     PTSUNNY   56  53  88 W3        30.04S
HILLSDALE*     MOSUNNY   58  55  88 CALM      30.04R
HOLLAND        MOSUNNY   63  57  81 SW8       30.02R
GRAND RAPIDS   CLOUDY    59  54  83 SW5       30.01S
KALAMAZOO      CLOUDY    56  50  80 CALM      30.05R
STURGIS*       CLOUDY    55  52  88 SW3       30.04S
THREE RIVERS*  CLOUDY    55  53  94 SW5       30.05R

$$
OHZ001>008-015>018-024>025-291400-
NORTHWEST OHIO

CITY           SKY/WX    TMP DP  RH WIND       PRES   REMARKS
DEFIANCE       SUNNY     56  51  84 CALM      30.05R
FINDLAY        SUNNY     57  50  77 W6        30.04R
TOLEDO EXPRESS SUNNY     59  49  69 W6        30.03R
TOLEDO METCALF SUNNY     60  49  66 W7        30.04R
LIMA           SUNNY     57  51  80 NW3       30.05R

$$
&&



USA.gov is the U.S. government's official web portal to all federal, state and local government web resources and services.